Location: Zagreb
(45.8000°N, 16.0000°E)
Time: 22:04:45
(UTC+02:00)

Transit 4A - All Passes

Search period start: 09 August 2022 00:00
Search period end: 19 August 2022 00:00
Orbit: 866 x 978 km, 66.8° (Epoch: 09 August)

Date Brightness Start Highest point End Pass type
(mag) Time Alt. Az. Time Alt. Az. Time Alt. Az.
09 Aug - 09:39:17 10° ESE 09:41:36 12° E 09:43:54 10° ENE daylight
09 Aug - 11:20:34 10° SSW 11:26:53 70° ESE 11:33:07 10° NE daylight
09 Aug - 13:08:22 10° W 13:13:47 29° NW 13:19:08 10° NNE daylight
09 Aug - 15:00:21 10° NW 15:02:23 12° NNW 15:04:24 10° N daylight
09 Aug - 16:50:15 10° N 16:51:52 11° NNE 16:53:28 10° NNE daylight
09 Aug - 18:35:28 10° NNW 18:40:33 27° NE 18:45:30 10° E daylight
09 Aug - 20:21:29 10° NW 20:27:30 72° WSW 20:33:18 10° SSE daylight
09 Aug - 22:10:59 10° W 22:12:41 11° W 22:14:23 10° WSW visible
10 Aug - 09:46:18 10° SE 09:50:30 19° ESE 09:54:39 10° ENE daylight
10 Aug - 11:29:45 10° SSW 11:36:08 85° WNW 11:42:24 10° NNE daylight
10 Aug - 13:18:30 10° W 13:23:24 23° NW 13:28:13 10° NNE daylight
10 Aug - 15:11:25 10° NNW 15:12:18 10° N 15:13:10 10° N daylight
10 Aug - 16:59:12 10° N 17:01:45 13° NNE 17:04:17 10° NE daylight
10 Aug - 18:44:34 10° NNW 18:50:06 35° NE 18:55:27 10° ESE daylight
10 Aug - 20:30:54 10° NW 20:36:39 50° WSW 20:42:14 10° S daylight
11 Aug - 09:54:17 10° SSE 09:59:29 27° ESE 10:04:38 10° NE daylight
11 Aug - 11:39:10 10° SW 11:45:27 62° NW 11:51:38 10° NNE daylight
11 Aug - 13:28:51 10° WNW 13:33:05 18° NNW 13:37:16 10° NNE daylight
11 Aug - 17:08:12 10° N 17:11:35 15° NNE 17:14:55 10° ENE daylight
11 Aug - 18:53:44 10° NNW 18:59:33 47° NE 19:05:12 10° ESE daylight
11 Aug - 20:40:25 10° NW 20:45:43 34° WSW 20:50:54 10° S visible
12 Aug - 10:02:43 10° S 10:08:32 39° ESE 10:14:16 10° NE daylight
12 Aug - 11:48:47 10° WSW 11:54:51 46° NW 12:00:48 10° NNE daylight
12 Aug - 13:39:22 10° WNW 13:42:51 15° NNW 13:46:18 10° N daylight
12 Aug - 17:17:14 10° NNW 17:21:20 18° NNE 17:25:22 10° ENE daylight
12 Aug - 19:02:55 10° NNW 19:08:55 65° NE 19:14:45 10° SE daylight
12 Aug - 20:50:11 10° WNW 20:54:43 23° WSW 20:59:11 10° SSW visible
13 Aug - 10:11:29 10° SSW 10:17:40 56° ESE 10:23:44 10° NE daylight
13 Aug - 11:58:36 10° WSW 12:04:19 34° NW 12:09:57 10° NNE daylight
13 Aug - 13:50:04 10° NW 13:52:41 13° NNW 13:55:17 10° N daylight
13 Aug - 15:41:25 10° N 15:42:09 10° N 15:42:53 10° NNE daylight
13 Aug - 17:26:17 10° NNW 17:31:01 23° NE 17:35:38 10° E daylight
13 Aug - 19:12:10 10° NNW 19:18:13 90° WSW 19:24:04 10° SSE daylight
13 Aug - 21:00:22 10° WNW 21:03:39 15° WSW 21:06:53 10° SW visible
14 Aug - 08:38:18 10° SE 08:41:26 14° ESE 08:44:33 10° ENE daylight
14 Aug - 10:20:30 10° SSW 10:26:50 79° ESE 10:33:05 10° NE daylight
14 Aug - 12:08:37 10° W 12:13:52 27° NW 12:19:03 10° NNE daylight
14 Aug - 14:00:57 10° NNW 14:02:34 11° NNW 14:04:11 10° N daylight
14 Aug - 15:50:09 10° N 15:52:04 11° NNE 15:53:57 10° NNE daylight
14 Aug - 17:35:23 10° NNW 17:40:37 29° NE 17:45:42 10° E daylight
14 Aug - 19:21:30 10° NW 19:27:25 63° WSW 19:33:10 10° SSE daylight
15 Aug - 08:45:46 10° SSE 08:50:22 21° ESE 08:54:54 10° ENE daylight
15 Aug - 10:29:46 10° SW 10:36:07 76° NW 10:42:22 10° NNE daylight
15 Aug - 12:18:51 10° W 12:23:30 21° NW 12:28:06 10° NNE daylight
15 Aug - 15:59:06 10° N 16:01:55 13° NNE 16:04:43 10° NE daylight
15 Aug - 17:44:30 10° NNW 17:50:08 39° NE 17:55:35 10° ESE daylight
15 Aug - 19:30:57 10° NW 19:36:32 43° WSW 19:42:00 10° S daylight
16 Aug - 08:53:56 10° SSE 08:59:22 31° ESE 09:04:44 10° NE daylight
16 Aug - 10:39:14 10° SW 10:45:27 56° NW 10:51:34 10° NNE daylight
16 Aug - 12:29:15 10° WNW 12:33:13 17° NNW 12:37:09 10° NNE daylight
16 Aug - 16:08:06 10° N 16:11:43 16° NNE 16:15:17 10° ENE daylight
16 Aug - 17:53:40 10° NNW 17:59:34 53° NE 18:05:16 10° SE daylight
16 Aug - 19:40:32 10° NW 19:45:35 30° WSW 19:50:33 10° SSW daylight
17 Aug - 09:02:29 10° S 09:08:27 44° ESE 09:14:19 10° NE daylight
17 Aug - 10:48:56 10° WSW 10:54:53 41° NW 11:00:43 10° NNE daylight
17 Aug - 12:39:50 10° NW 12:43:00 14° NNW 12:46:09 10° N daylight
17 Aug - 16:17:08 10° NNW 16:21:27 20° NNE 16:25:40 10° ENE daylight
17 Aug - 18:02:52 10° NNW 18:08:54 73° NE 18:14:44 10° SE daylight
17 Aug - 19:50:24 10° WNW 19:54:34 20° WSW 19:58:41 10° SSW daylight
18 Aug - 07:31:29 10° ESE 07:32:24 10° E 07:33:19 10° E daylight
18 Aug - 09:11:21 10° SSW 09:17:35 63° ESE 09:23:44 10° NE daylight
18 Aug - 10:58:49 10° WSW 11:04:23 31° NW 11:09:50 10° NNE daylight
18 Aug - 12:50:36 10° NW 12:52:52 12° NNW 12:55:06 10° N daylight
18 Aug - 14:41:11 10° N 14:42:20 10° N 14:43:28 10° NNE daylight
18 Aug - 16:26:12 10° NNW 16:31:06 25° NE 16:35:53 10° E daylight
18 Aug - 18:12:09 10° NW 18:18:09 80° WSW 18:23:59 10° SSE daylight
18 Aug - 20:00:54 10° WNW 20:03:28 13° W 20:06:01 10° SW daylight
